Regional Weather Roundup
Issued by NWS

Home | Current Version | Previous Version | Text Only | Print | Product List | Glossary Off
Versions: 1 2 3 4 5 6 7 8 9 10 11 12 13 14 15 16 17 18 19 20 21 22 23 24 25 26 27 28 29 30 31 32 33 34 35 36 37 38 39 40 41 42 43 44 45 46 47 48 49 50

000
ASUS43 KLSX 281610
RWRMO

WEATHER SUMMARY FOR MISSOURI
NATIONAL WEATHER SERVICE SPRINGFIELD MO
1100 AM CDT THU APR 28 2016

NOTE: "FAIR" INDICATES FEW OR NO CLOUDS BELOW 12,000 FEET WITH NO
       SIGNIFICANT WEATHER AND/OR OBSTRUCTIONS TO VISIBILITY.
       CURRENT SKY AND/OR WEATHER CONDITIONS ARE NOT AVAILABLE FOR
       CHILLICOTHE AND FARMINGTON.

MOZ001>031-035>038-043-044-053-054-281700-
...NORTHERN AND WESTERN MISSOURI...

CITY           SKY/WX    TMP DP  RH WIND       PRES   REMARKS
KANSAS CTY INT CLOUDY    51  44  77 W8        29.93R
KANSAS C DTWN  CLOUDY    54  44  69 W12       29.93R
LEE`S SUMMIT   CLOUDY    52  44  74 W10G20    29.94R
ST JOSEPH      CLOUDY    52  47  83 W12       29.91R
CHILLICOTHE      N/A     52  49  89 CALM      29.90R
KIRKSVILLE     CLOUDY    54  46  74 W12G17    29.87R

$$
MOZ066>068-077>081-088>096-101>105-281700-
...SOUTHWEST MISSOURI...

CITY           SKY/WX    TMP DP  RH WIND       PRES   REMARKS
SPRINGFIELD    SUNNY     61  40  45 W12       29.95R
JOPLIN         SUNNY     59  42  53 NW6       29.97R
BRANSON        MOSUNNY   64  39  39 NW10      29.97R

$$
MOZ032>034-039>042-045>050-055>058-069>072-281700-
...CENTRAL MISSOURI...

CITY           SKY/WX    TMP DP  RH WIND       PRES   REMARKS
COLUMBIA       MOSUNNY   59  47  64 W12       29.91R
JEFFERSON CITY SUNNY     58  44  60 W15       29.91R
ROLLA          SUNNY     60  47  61 W14       29.90R
SEDALIA        PTSUNNY   55  46  71 W8        29.94R
WHITEMAN AFB   PTSUNNY   53  45  75 W10       29.94R
WARRENSBURG    CLOUDY    52  43  71 W12G17    29.95R
OSAGE BEACH    SUNNY     59  39  47 W10G16    29.93R

$$
MOZ051-052-059>065-281700-
...EAST CENTRAL MISSOURI...

CITY           SKY/WX    TMP DP  RH WIND       PRES   REMARKS
ST LOUIS INTL  MOSUNNY   66  46  48 W16G23    29.87R
SPIRIT OF STL  MOSUNNY   64  50  60 W10G21    29.87R
ST CHARLES     MOSUNNY   64  49  57 W18       29.86R

$$
MOZ072>076-082>087-097>100-106>115-281700-
...SOUTH CENTRAL AND SOUTHEAST MISSOURI...

CITY           SKY/WX    TMP DP  RH WIND       PRES   REMARKS
CAPE GIRARDEAU SUNNY     70  53  54 W13       29.89R
FARMINGTON     SUNNY     66  45  46 W13       29.89R
POPLAR BLUFF   SUNNY     71  45  39 W8        29.90R
WEST PLAINS    SUNNY     66  41  40 W14G23    29.94R

$$




USA.gov is the U.S. government's official web portal to all federal, state and local government web resources and services.